Weather History for Blytheville Muni Airport, AR

Change the Weather History Date:

Sunday, December 29, 2013

  Actual Average Record
Temperature  
Mean Temperature 42 °F -  
Max Temperature 52 °F 45 °F 72 °F (1984)
Min Temperature 30 °F 30 °F 6 °F (1983)
Degree Days  
Heating Degree Days 23    
Moisture  
Dew Point 36 °F    
Average Humidity 86    
Maximum Humidity 100    
Minimum Humidity 63    
Precipitation  
Precipitation 0.07 in - - ()
Sea Level Pressure  
Sea Level Pressure 30.04 in    
Wind  
Wind Speed 6 mph (West)    
Max Wind Speed 24 mph    
Max Gust Speed 29 mph    
Visibility 6 miles    
Events Fog , Rain    
Averages and records for this station are not official NWS values.
T = Trace of Precipitation, MM = Missing Value Source: NWS Daily Summary

Daily Weather History Graph

Daily Weather History Graph

Search for Another Location

Airport:

Trip Planner

Search our weather history database for the weather conditions in past years. The results will help you decide how hot, cold, wet, or windy it might be!

Date:

Astronomy

Dec. 29, 2013 Rise Set
Actual Time 7:09 AM CST 4:54 PM CST
Civil Twilight 6:40 AM CST 5:22 PM CST
Nautical Twilight 6:08 AM CST 5:54 PM CST
Astronomical Twilight 5:37 AM CST 6:25 PM CST
Moon 3:55 AM CST (12/29) 2:29 PM CST (12/29)
Length of Visible Light 10h 41m
Length of Day
9h 44m
Waning Crescent, 11% of the Moon is Illuminated
Dec 29
Waning Crescent
Jan 1
New
Jan 7
First Quarter
Jan 15
Full
Jan 23
Last Quarter

Hourly Weather History & Observations

Time (CST) Temp. Windchill Dew Point Humidity Pressure Visibility Wind Dir Wind Speed Gust Speed Precip Events Conditions
12:53 AM 41.0 °F - 39.9 °F 96% 30.00 in 9.0 mi Calm Calm - 0.02 in Rain Light Rain
1:53 AM 41.0 °F 39.0 °F 39.9 °F 96% 29.99 in 9.0 mi SW 3.5 mph - 0.04 in Rain Light Rain
2:45 AM 41.0 °F - 39.2 °F 93% 29.98 in 8.0 mi Calm Calm - 0.01 in   Overcast
2:53 AM 41.0 °F - 39.0 °F 93% 29.98 in 8.0 mi Calm Calm - 0.01 in   Overcast
3:31 AM 39.2 °F 37.0 °F 39.2 °F 100% 29.98 in 6.0 mi SSW 3.5 mph - N/A   Mostly Cloudy
3:44 AM 39.2 °F 37.0 °F 39.2 °F 100% 29.97 in 5.0 mi SW 3.5 mph - N/A   Scattered Clouds
3:53 AM 39.9 °F - 39.0 °F 97% 29.97 in 4.0 mi Calm Calm - N/A   Scattered Clouds
4:14 AM 39.2 °F 37.0 °F 37.4 °F 93% 29.96 in 1.8 mi SSW 3.5 mph - N/A   Clear
4:18 AM 39.2 °F 37.0 °F 37.4 °F 93% 29.96 in 1.0 mi SSW 3.5 mph - N/A   Mist
4:26 AM 37.4 °F 33.8 °F 35.6 °F 93% 29.96 in 0.5 mi SW 4.6 mph - N/A Fog Fog
4:34 AM 37.4 °F 33.8 °F 35.6 °F 93% 29.96 in 0.2 mi SSW 4.6 mph - N/A Fog Fog
4:44 AM 35.6 °F 30.7 °F 35.6 °F 100% 29.97 in 0.2 mi SSW 5.8 mph - N/A Fog Fog
4:53 AM 36.0 °F 31.1 °F 35.1 °F 97% 29.97 in 0.2 mi SSW 5.8 mph - N/A Fog Fog
5:06 AM 35.6 °F 30.7 °F 35.6 °F 100% 29.97 in 0.5 mi SW 5.8 mph - N/A Fog Fog
5:14 AM 35.6 °F 30.7 °F 35.6 °F 100% 29.97 in 0.5 mi SSW 5.8 mph - N/A Fog Fog
5:53 AM 36.0 °F 32.1 °F 36.0 °F 100% 29.97 in 0.5 mi SSW 4.6 mph - N/A Fog Fog
6:19 AM 35.6 °F 29.9 °F 35.6 °F 100% 29.98 in 0.2 mi SSW 6.9 mph - N/A Fog Fog
6:31 AM 35.6 °F 29.9 °F 35.6 °F 100% 29.98 in 0.5 mi SSW 6.9 mph - N/A Fog Fog
6:53 AM 35.1 °F 30.1 °F 35.1 °F 100% 29.99 in 0.5 mi SSW 5.8 mph - N/A Fog Fog
7:21 AM 35.6 °F 30.7 °F 35.6 °F 100% 29.99 in 1.8 mi SSW 5.8 mph - N/A   Scattered Clouds
7:28 AM 35.6 °F 29.2 °F 35.6 °F 100% 29.99 in 2.0 mi SSW 8.1 mph - N/A   Scattered Clouds
7:46 AM 37.4 °F 31.4 °F 35.6 °F 93% 29.99 in 4.0 mi SSW 8.1 mph - N/A   Clear
7:53 AM 37.0 °F 30.4 °F 36.0 °F 96% 30.01 in 5.0 mi SSW 9.2 mph - N/A   Clear
8:53 AM 41.0 °F 36.4 °F 39.0 °F 93% 30.02 in 10.0 mi WSW 6.9 mph - N/A   Clear
9:53 AM 46.0 °F 42.5 °F 39.0 °F 76% 30.02 in 10.0 mi West 6.9 mph - N/A   Clear
10:53 AM 50.0 °F - 41.0 °F 71% 30.02 in 10.0 mi West 10.4 mph - N/A   Clear
11:53 AM 52.0 °F - 39.9 °F 63% 29.99 in 10.0 mi NW 6.9 mph - N/A   Mostly Cloudy
12:53 PM 51.1 °F - 39.9 °F 66% 30.00 in 10.0 mi WNW 8.1 mph - N/A   Overcast
1:53 PM 48.9 °F - 39.9 °F 71% 30.02 in 10.0 mi NW 11.5 mph - N/A   Overcast
2:53 PM 48.0 °F - 39.9 °F 74% 30.04 in 10.0 mi NW 9.2 mph - N/A   Overcast
3:37 PM 48.2 °F - 39.2 °F 71% 30.05 in 10.0 mi NW 10.4 mph - N/A   Overcast
3:46 PM 48.2 °F - 39.2 °F 71% 30.06 in 10.0 mi North 18.4 mph 21.9 mph N/A   Overcast
3:53 PM 46.0 °F 38.5 °F 37.9 °F 73% 30.07 in 10.0 mi NNW 19.6 mph - N/A   Overcast
4:28 PM 42.8 °F 34.5 °F 35.6 °F 76% 30.08 in 10.0 mi North 18.4 mph - N/A   Overcast
4:53 PM 42.1 °F 34.2 °F 35.1 °F 76% 30.10 in 10.0 mi North 16.1 mph - N/A   Overcast
5:53 PM 39.9 °F 29.5 °F 33.1 °F 77% 30.13 in 10.0 mi North 24.2 mph 28.8 mph N/A   Overcast
6:05 PM 39.2 °F 29.8 °F 33.8 °F 81% 30.14 in 10.0 mi North 18.4 mph - N/A   Overcast
6:53 PM 36.0 °F 25.6 °F 30.0 °F 79% 30.17 in 10.0 mi North 18.4 mph - N/A   Overcast
7:00 PM 35.6 °F 25.9 °F 30.2 °F 81% 30.17 in 10.0 mi North 16.1 mph - N/A   Overcast
7:25 PM 35.6 °F 25.2 °F 28.4 °F 75% 30.18 in 10.0 mi North 18.4 mph - N/A   Overcast
7:53 PM 35.1 °F 24.1 °F 28.0 °F 76% 30.20 in 10.0 mi North 19.6 mph - N/A   Overcast
8:53 PM 34.0 °F 24.2 °F 28.0 °F 79% 30.20 in 10.0 mi North 15.0 mph - N/A   Overcast
9:53 PM 33.1 °F 22.2 °F 27.0 °F 78% 30.22 in 10.0 mi North 17.3 mph - N/A   Overcast
10:53 PM 32.0 °F 21.2 °F 25.0 °F 75% 30.24 in 10.0 mi North 16.1 mph - N/A   Overcast
11:53 PM 30.0 °F 19.5 °F 23.0 °F 75% 30.25 in 10.0 mi North 13.8 mph - N/A   Overcast